Regional Weather Roundup
Issued by NWS

Home | Current Version | Previous Version | Text Only | Print | Product List | Glossary Off
Versions: 1 2 3 4 5 6 7 8 9 10 11 12 13 14 15 16 17 18 19 20 21 22 23 24 25 26 27 28 29

000
ASUS45 KPSR 281910
RWRAZ

ARIZONA HOURLY REGIONAL WEATHER ROUNDUP
NATIONAL WEATHER SERVICE PHOENIX AZ
1200 PM MST THU APR 28 2016

NOTE: FAIR INDICATES FEW OR NO CLOUDS BELOW 12,000 FEET WITH NO
SIGNIFICANT WEATHER AND/OR OBSTRUCTIONS TO VISIBILITY.

AZZ001>003-036-282000-
NORTHWEST ARIZONA

CITY           SKY/WX    TMP DP  RH WIND       PRES   REMARKS
BULLHEAD CITY  CLOUDY    64  46  52 CALM      29.73S
KINGMAN        LGT RAIN  48  42  80 S8        29.76R
$$

AZZ004>008-015-016-018-282000-
NORTH CENTRAL ARIZONA

CITY           SKY/WX    TMP DP  RH WIND       PRES   REMARKS
GRAND CANYON   SNOW      34  33  96 SW12      29.78R VSB 1/4 WCI  25
WILLIAMS       FLURRIES  36  34  93 VRB7      29.85S WCI  30
PRESCOTT       LGT RAIN  44  36  73 S18G25    29.77R
FLAGSTAFF      PTSUNNY   43  21  41 W20G36    29.75R
PAYSON         PTSUNNY   54  30  40 S10G18    29.80S
PAGE           CLOUDY    49  40  71 CALM      29.71F
$$

AZZ009>014-017-282000-
NORTHEAST ARIZONA

CITY           SKY/WX    TMP DP  RH WIND       PRES   REMARKS
WINSLOW        LGT RAIN  56  36  47 S26G35    29.74S
SAINT JOHNS    SUNNY     65   1   8 W32G46    29.71F
WINDOW ROCK    MOSUNNY   62  18  18 SW26G36   29.74F
SHOW LOW       SUNNY     55   7  14 SW36G51   29.76S
$$

AZZ023-282000-
GREATER PHOENIX AREA

CITY           SKY/WX    TMP DP  RH WIND       PRES   REMARKS
PHOENIX        MOSUNNY   72  29  20 W9G23     29.72S
BUCKEYE        SUNNY     68  27  21 S16G22    29.74S
GLENDALE       MOSUNNY   72  21  15 S16G29    29.74R
LUKE AFB       SUNNY     72  23  16 S13G25    29.71S
DEER VALLEY    MOSUNNY   70  27  20 SW16G22   29.72R
SCOTTSDALE     MOSUNNY   69  26  20 S12G28    29.74S
MESA-FALCON    PTSUNNY  N/A N/A N/A S17       29.70F
MESA-GATEWAY   MOSUNNY   70  30  23 W17       29.74F
CHANDLER       MOSUNNY   70  28  21 SW17G23   29.73S
$$

AZZ027-028-282000-
SOUTHWEST MARICOPA COUNTY AND PINAL COUNTY

CITY           SKY/WX    TMP DP  RH WIND       PRES   REMARKS
CASA GRANDE    MOSUNNY   72  30  21 NW12      29.74F
GILA BEND      SUNNY     70  28  21 SW18      29.74S
$$

AZZ503-504-507>509-282000-
SOUTHEAST ARIZONA

CITY           SKY/WX    TMP DP  RH WIND       PRES   REMARKS
TUCSON         SUNNY     79  22  12 SW21G30   29.74F
DAVIS-MONTHAN  SUNNY     77  24  13 SW16G31   29.72F
RYAN FIELD     SUNNY     79  28  15 SW23G36   29.73F
NOGALES        SUNNY     75  28  17 S24G31    29.78F
SIERRA VISTA   SUNNY     72  12  10 SW17G35   29.81S
DOUGLAS        SUNNY     74  25  16 S13G24    29.80F
SAFFORD        SUNNY     77   9   7 W6        29.68F
$$

AZZ020-021-025-026-031-282000-
SOUTHWEST ARIZONA

CITY           SKY/WX    TMP DP  RH WIND       PRES   REMARKS
YUMA           MOSUNNY   72  37  28 W16G23    29.76S
$$

CAZ031-033-041-043-047-048-061-282000-
SOUTHERN CALIFORNIA

CITY           SKY/WX    TMP DP  RH WIND       PRES   REMARKS
DOWNTOWN L.A.  MOSUNNY   69  48  47 MISG      29.84R
L.A. AIRPORT   MOSUNNY   65  47  52 SW14      29.87R
SAN DIEGO      PTSUNNY   62  47  57 W6        29.92R
BURBANK        SUNNY     68  42  38 S10G16    29.83S
ONTARIO        PTSUNNY   64  42  44 VRB6      29.86R
RIVERSIDE      PTSUNNY   65  42  43 W8        29.86R
PALM SPRINGS   PTSUNNY   74  40  29 NW20G30   29.75F
EL CENTRO NAS  MOSUNNY   72  34  24 W31G38    29.78S
IMPERIAL       SUNNY     73  38  27 W26G35    29.75S
BLYTHE           N/A     72  39  30 W20G31    29.72S
NEEDLES        RAIN      65  51  60 NW12G23   29.71R
$$

NVZ020-UTZ003-282000-
SOUTHERN NEVADA-UTAH

CITY           SKY/WX    TMP DP  RH WIND       PRES   REMARKS
LAS VEGAS      PTSUNNY   63  46  54 NE5       29.65R
SALT LAKE CITY CLOUDY    53  36  52 VRB3      29.73S
$$

NMZ009-TXZ055-282000-
NEW MEXICO-WEST TEXAS

CITY           SKY/WX    TMP DP  RH WIND       PRES   REMARKS
ALBUQUERQUE    MOSUNNY   70  13  11 SW18G33   29.75F
EL PASO        MOSUNNY   80  12   7 SW15G28   29.77F
$$


........................KEY........................
SKY/WX - SKY CONDITION/WEATHER
TMP    - TEMPERATURE IN FAHRENHEIT
DP     - DEW POINT IN FAHRENHEIT
RH     - RELATIVE HUMIDITY IN PERCENT
WIND   - DIRECTION AND SPEED IN MILES PER HOUR (MPH)
VRB    - VARIABLE WIND DIRECTION
PRES   - MEAN SEA LEVEL PRESSURE IN INCHES OF MERCURY
         F - FALLING PRESSURE   R - RISING PRESSURE
         S - STEADY PRESSURE
VSB    - VISIBILITY IN MILES
HX     - HEAT INDEX IN FAHRENHEIT
WCI    - WIND CHILL INDEX IN FAHRENHEIT
TC     - TEMPERATURE IN CELSIUS WHICH IS ALSO KNOWN AS
         TEMPERATURE IN CENTIGRADE
AFB    - AIR FORCE BASE
         LUKE AFB IS LUKE AIR FORCE BASE
         DAVIS-MONTHAN IS DAVIS-MONTHAN AIR FORCE BASE
NAS    - NAVAL AIR STATION
         EL CENTRO NAS IS EL CENTRO NAVAL AIR STATION
N/A    - NOT AVAILABLE





USA.gov is the U.S. government's official web portal to all federal, state and local government web resources and services.